STARLINK-34559, 64706

Orbit data source: Space-Track

STARLINK-34559, 64706 is a payload satellite owned by SpaceX/Seattle (US) in LEO that was launched on Sat, 28 Jun 2025 UTC via an FALCON 9 launch vehicle from the Air Force Western Test Range (AFWTR). Payload-class satellites include a variety of spacecraft equipped with specific instruments for various scientific and technological missions. These include communications satellites like Starlink; space stations such as the ISS; scientific satellites like the Hubble; Earth observation satellites from companies like Planet Labs, Umbra, and HawkEye 360; GPS; miniature CubeSats for education and research; and military/defense satellites.

Not visible in the next 10 days
Identifier
64706, 2025-142L
Orbit
LEO
Country
Flag of USUS
Related business
Manufacturer
SpaceX/Seattle
Mission
Operational Commercial Communications
Bus & Motor
STARLINK V2MO, Unknown motor
Mass
575 kg wet, ~530 kg dry
Launch date (UTC)
2025-06-28 (2 months ago)
Launch vehicle
FALCON 9
Launch site
Air Force Western Test Range (AFWTR)
Object type
Payload
Rocket body
Debris
Shape & HBR
Box + 1 Pan, 14.5 m
Radar Cross Section
41.120 m², Large (>1 m²)

Expand to show TLE details & history
Last TLE update: 1 day ago

TLE from 1 day ago
0 STARLINK-34559
1 64706U 25142L   25241.94328956  .00047519  00000-0  10815-2 0  9990
2 64706  70.0002  80.1284 0003189 265.3070  94.7748 15.42721872 10718
Epoch: 2025-08-29T22:38Z
TLE epoch observation values (Epoch: 2025-08-29T22:38:20.217Z)
Latitude
-0.00003°
Longitude
122.15947°
Altitude
440.733 km
Speed
7.648 km/s
True Right ascension
05h 20m 30s
True Declination
0° 00' 00"
Sunlit
Object was in daylight at epoch
Visualization orbit readout
Latitude
Unknown
Longitude
Unknown
Altitude
Unknown
Speed
Unknown
Apparent Right ascension
Unknown
Apparent Declination
Unknown
Sunlit
N/A
Visualization observer readout
Local Sidereal Time
16:41:36
Azimuth
Unknown
Elevation
Unknown
Doppler factor
Unknown
Orbital elements
Apogee altitude
438.161 km
Perigee altitude
433.815 km
Semi-major axis
6,814.125 km
Eccentricity
0.00032
Inclination
70.0002°
RAAN
80.1284°
Arg. of periapsis
265.307°
True anomaly
94.81122°
Mean anomaly
94.7748°
Eccentric anomaly
94.79301°
Mean motion
3.85858 °/min
Orbital period
93.3 mins
BSTAR
0.0010815
Loading maneuver chart data...
Computing Atmospheric mass density...
Loading historical data...
Loading historical data...
Loading historical data...
Loading historical data...
Loading historical data...
Loading historical data...
Loading historical data...

Documentation

Showing up to 5 results
|